Weather History for Ellsworth AFB, SD

Change the Weather History Date:

Monday, June 24, 2013

  Actual Average Record
Temperature  
Mean Temperature 72 °F -  
Max Temperature 85 °F 77 °F 101 °F (2007)
Min Temperature 59 °F 52 °F 44 °F (2003)
Cooling Degree Days 6    
Growing Degree Days 22 (Base 50)    
Moisture  
Dew Point 56 °F    
Average Humidity 62    
Maximum Humidity 94    
Minimum Humidity 27    
Precipitation  
Precipitation 0.00 in - - ()
Sea Level Pressure  
Sea Level Pressure 29.67 in    
Wind  
Wind Speed 8 mph (SSE)    
Max Wind Speed 17 mph    
Max Gust Speed 31 mph    
Visibility 10 miles    
Events      
Averages and records for this station are not official NWS values.
T = Trace of Precipitation, MM = Missing Value Source: NWS Daily Summary

Daily Weather History Graph

Daily Weather History Graph

Search for Another Location

Airport:

Trip Planner

Search our weather history database for the weather conditions in past years. The results will help you decide how hot, cold, wet, or windy it might be!

Date:

Astronomy

Jun. 24, 2013 Rise Set
Actual Time 5:09 AM MDT 8:39 PM MDT
Civil Twilight 4:33 AM MDT 9:16 PM MDT
Nautical Twilight 3:45 AM MDT 10:04 PM MDT
Astronomical Twilight 2:43 AM MDT 11:05 PM MDT
Moon 9:38 PM MDT (6/24) 6:44 AM MDT (6/24)
Length of Visible Light 16h 42m
Length of Day
15h 29m
Full, 97% of the Moon is Illuminated
Jun 24
Full
Jun 29
Last Quarter
Jul 8
New
Jul 15
First Quarter
Jul 22
Full

Hourly Weather History & Observations

Time (MDT) Temp. Heat Index Dew Point Humidity Pressure Visibility Wind Dir Wind Speed Gust Speed Precip Events Conditions
12:58 AM 61.3 °F - 55.6 °F 81% 29.78 in 10.0 mi South 2.3 mph - N/A   Clear
1:58 AM 60.6 °F - 56.1 °F 85% 29.75 in 10.0 mi SE 5.8 mph - N/A   Clear
2:58 AM 59.7 °F - 56.5 °F 89% 29.73 in 10.0 mi SE 8.1 mph - N/A   Clear
3:58 AM 59.5 °F - 57.0 °F 91% 29.71 in 10.0 mi SSE 9.2 mph - N/A   Clear
4:58 AM 59.4 °F - 57.4 °F 93% 29.71 in 10.0 mi SSE 11.5 mph - N/A   Clear
5:58 AM 60.6 °F - 59.0 °F 94% 29.67 in 10.0 mi South 13.8 mph - N/A   Clear
6:58 AM 63.5 °F - 61.0 °F 91% 29.65 in 10.0 mi South 16.1 mph - N/A   Partly Cloudy
7:58 AM 67.3 °F - 63.3 °F 87% 29.65 in 10.0 mi SE 5.8 mph - N/A   Clear
8:58 AM 71.8 °F - 61.9 °F 71% 29.65 in 10.0 mi South 11.5 mph - N/A   Clear
9:58 AM 75.0 °F - 61.3 °F 62% 29.66 in 10.0 mi SSE 5.8 mph - N/A   Clear
10:58 AM 77.5 °F - 61.3 °F 57% 29.67 in 10.0 mi SE 5.8 mph - N/A   Clear
11:58 AM 79.3 °F - 62.1 °F 55% 29.67 in 10.0 mi SE 6.9 mph - N/A   Clear
12:58 PM 82.0 °F 82.8 °F 61.5 °F 50% 29.66 in 10.0 mi SE 9.2 mph 18.4 mph N/A   Partly Cloudy
1:58 PM 82.4 °F 82.7 °F 60.1 °F 47% 29.63 in 10.0 mi Calm Calm - N/A   Mostly Cloudy
2:58 PM 84.9 °F 84.6 °F 59.7 °F 42% 29.61 in 10.0 mi South 3.5 mph - N/A   Scattered Clouds
3:58 PM 82.8 °F 83.0 °F 60.3 °F 46% 29.62 in 10.0 mi South 10.4 mph - N/A   Mostly Cloudy
4:58 PM 81.9 °F 81.9 °F 58.8 °F 45% 29.62 in 10.0 mi South 17.3 mph 31.1 mph N/A   Mostly Cloudy
5:58 PM 79.7 °F - 42.6 °F 27% 29.65 in 10.0 mi SSW 9.2 mph 21.9 mph N/A   Mostly Cloudy
6:58 PM 75.4 °F - 48.2 °F 38% 29.65 in 10.0 mi Variable 5.8 mph - N/A   Scattered Clouds
7:58 PM 75.0 °F - 46.0 °F 36% 29.64 in 10.0 mi SSW 13.8 mph - N/A   Mostly Cloudy
8:58 PM 71.1 °F - 48.4 °F 44% 29.67 in 10.0 mi South 9.2 mph - N/A   Scattered Clouds
9:58 PM 66.7 °F - 49.5 °F 54% 29.66 in 10.0 mi South 6.9 mph - N/A   Partly Cloudy
10:58 PM 69.4 °F - 47.3 °F 45% 29.64 in 10.0 mi SSW 8.1 mph - N/A   Clear
11:58 PM 68.9 °F - 48.0 °F 47% 29.61 in 10.0 mi SSW 10.4 mph - N/A   Clear